Volver al catálogo

BREEZE-M DEB

LostHEO
NORAD 38615·DEBRIS·🇷🇺 Russia

Lanzado Mar 14, 2008 desde Baikonur Cosmodrome

Loading…

Próximos Pases (próximas 24 horas)

TLE

ObsoletoSource: Space-Track

Época: Jun 23, 2022, 23:37 UTC

1 38615U 08011BN  22174.98420852 -.00000236  00000-0 -31647-3 0  9994
2 38615  49.2257  28.2650 6466937 244.7367  37.0163  3.11787707124964

Sigue BREEZE-M DEB en tiempo real con AllMySat

Download on the App Store